Time,TemperatureF,DewpointF,PressureIn,WindDirection,WindDirectionDegrees,WindSpeedMPH,WindSpeedGustMPH,Humidity,HourlyPrecipIn,Conditions,Clouds,dailyrainin,SolarRadiationWatts/m^2,SoftwareType,DateUTC
2013-02-20 00:05:00,34.5,31.8,29.68,NE,37,17.0,29.0,90,0.01,,,0.08,0.0,meteohub,2013-02-20 08:05:00,
2013-02-20 00:10:00,34.3,31.5,29.68,NE,53,27.0,30.0,89,0.01,,,0.00,0.0,meteohub,2013-02-20 08:10:00,
2013-02-20 00:15:00,34.3,31.5,29.68,NE,36,22.0,30.0,89,0.01,,,0.00,0.0,meteohub,2013-02-20 08:15:00,
2013-02-20 00:20:00,34.3,31.1,29.68,NE,42,27.0,32.0,88,0.01,,,0.00,0.0,meteohub,2013-02-20 08:20:00,
2013-02-20 00:25:00,34.3,30.9,29.68,NE,36,25.0,32.0,87,0.01,,,0.00,0.0,meteohub,2013-02-20 08:25:00,
2013-02-20 00:30:00,34.3,30.9,29.69,NE,53,18.0,33.0,87,0.00,,,0.00,0.0,meteohub,2013-02-20 08:30:00,
2013-02-20 00:35:00,34.2,30.7,29.69,NNE,18,17.0,33.0,87,0.00,,,0.00,0.0,meteohub,2013-02-20 08:35:00,
2013-02-20 00:40:00,34.0,30.7,29.68,ENE,67,12.0,33.0,88,0.00,,,0.00,0.0,meteohub,2013-02-20 08:40:00,
2013-02-20 00:45:00,33.8,30.4,29.67,NE,49,26.0,29.0,87,0.00,,,0.00,0.0,meteohub,2013-02-20 08:45:00,
2013-02-20 00:50:00,33.6,29.8,29.67,NE,38,23.0,31.0,86,0.01,,,0.01,0.0,meteohub,2013-02-20 08:50:00,
2013-02-20 00:55:00,33.4,29.7,29.67,NE,49,14.0,31.0,86,0.01,,,0.01,0.0,meteohub,2013-02-20 08:55:00,
2013-02-20 01:00:00,33.4,29.7,29.68,NNE,16,11.0,30.0,86,0.01,,,0.01,0.0,meteohub,2013-02-20 09:00:00,
2013-02-20 01:05:00,33.3,29.5,29.67,NE,45,21.0,24.0,86,0.01,,,0.01,0.0,meteohub,2013-02-20 09:05:00,
2013-02-20 01:10:00,33.4,29.5,29.67,NE,55,13.0,29.0,85,0.01,,,0.01,0.0,meteohub,2013-02-20 09:10:00,
2013-02-20 01:15:00,33.4,29.5,29.67,NNE,26,25.0,29.0,85,0.01,,,0.01,0.0,meteohub,2013-02-20 09:15:00,
2013-02-20 01:20:00,33.4,29.1,29.67,NE,49,23.0,32.0,84,0.01,,,0.01,0.0,meteohub,2013-02-20 09:20:00,
2013-02-20 01:26:00,33.6,28.9,29.66,NE,40,20.0,33.0,83,0.01,,,0.01,0.0,meteohub,2013-02-20 09:26:00,
2013-02-20 01:31:00,33.6,28.8,29.66,NE,53,24.0,33.0,82,0.01,,,0.01,0.0,meteohub,2013-02-20 09:31:00,
2013-02-20 01:36:00,33.4,28.6,29.67,NE,44,18.0,37.0,82,0.01,,,0.01,0.0,meteohub,2013-02-20 09:36:00,
2013-02-20 01:41:00,33.4,28.6,29.67,NNE,30,20.0,37.0,82,0.01,,,0.01,0.0,meteohub,2013-02-20 09:41:00,
2013-02-20 01:47:00,33.4,27.9,29.66,NE,38,33.0,37.0,80,0.00,,,0.01,0.0,meteohub,2013-02-20 09:47:00,
2013-02-20 01:52:00,33.4,27.9,29.66,NE,39,29.0,40.0,80,0.00,,,0.01,0.0,meteohub,2013-02-20 09:52:00,
2013-02-20 01:57:00,33.4,27.7,29.66,NE,53,32.0,40.0,79,0.00,,,0.01,0.0,meteohub,2013-02-20 09:57:00,
2013-02-20 02:02:00,33.4,27.3,29.67,NE,55,29.0,41.0,78,0.00,,,0.01,0.0,meteohub,2013-02-20 10:02:00,
2013-02-20 02:07:00,33.4,26.8,29.67,ENE,66,19.0,41.0,76,0.00,,,0.01,0.0,meteohub,2013-02-20 10:07:00,
2013-02-20 02:12:00,33.4,27.0,29.67,ENE,59,23.0,37.0,77,0.00,,,0.01,0.0,meteohub,2013-02-20 10:12:00,
2013-02-20 02:18:00,33.4,27.0,29.67,NE,40,26.0,37.0,77,0.00,,,0.01,0.0,meteohub,2013-02-20 10:18:00,
2013-02-20 02:23:00,33.3,26.8,29.67,ENE,61,28.0,36.0,77,0.00,,,0.01,0.0,meteohub,2013-02-20 10:23:00,
2013-02-20 02:28:00,33.3,26.8,29.67,NE,56,19.0,35.0,77,0.00,,,0.01,0.0,meteohub,2013-02-20 10:28:00,
2013-02-20 02:34:00,33.3,26.8,29.67,ENE,66,23.0,35.0,77,0.00,,,0.01,0.0,meteohub,2013-02-20 10:34:00,
2013-02-20 02:39:00,33.3,26.8,29.67,ENE,67,20.0,35.0,77,0.00,,,0.01,0.0,meteohub,2013-02-20 10:39:00,
2013-02-20 02:44:00,33.3,26.8,29.67,ENE,59,32.0,32.0,77,0.00,,,0.01,0.0,meteohub,2013-02-20 10:44:00,
2013-02-20 02:50:00,33.3,26.8,29.67,NE,46,30.0,32.0,77,0.01,,,0.02,0.0,meteohub,2013-02-20 10:50:00,
2013-02-20 02:55:00,33.3,26.8,29.68,ENE,59,33.0,37.0,77,0.01,,,0.02,0.0,meteohub,2013-02-20 10:55:00,
2013-02-20 03:01:00,33.3,27.1,29.67,ENE,60,25.0,36.0,78,0.01,,,0.02,0.0,meteohub,2013-02-20 11:01:00,
2013-02-20 03:06:00,33.3,27.1,29.68,ENE,57,23.0,35.0,78,0.01,,,0.02,0.0,meteohub,2013-02-20 11:06:00,
2013-02-20 03:12:00,33.3,27.1,29.67,ENE,75,22.0,35.0,78,0.01,,,0.02,0.0,meteohub,2013-02-20 11:12:00,
2013-02-20 03:17:00,33.1,27.3,29.67,East,88,23.0,33.0,79,0.01,,,0.02,0.0,meteohub,2013-02-20 11:17:00,
2013-02-20 03:22:00,33.1,27.5,29.67,ENE,61,26.0,33.0,80,0.01,,,0.02,0.0,meteohub,2013-02-20 11:22:00,
2013-02-20 03:27:00,33.1,27.5,29.67,ENE,68,25.0,33.0,80,0.01,,,0.02,0.0,meteohub,2013-02-20 11:27:00,
2013-02-20 03:32:00,32.9,27.7,29.67,ENE,68,24.0,30.0,81,0.01,,,0.02,0.0,meteohub,2013-02-20 11:32:00,
2013-02-20 03:37:00,32.7,27.5,29.67,NE,53,26.0,30.0,81,0.01,,,0.02,0.0,meteohub,2013-02-20 11:37:00,
2013-02-20 03:42:00,32.9,27.7,29.67,ENE,61,25.0,30.0,81,0.01,,,0.02,0.0,meteohub,2013-02-20 11:42:00,
2013-02-20 03:47:00,33.1,27.5,29.67,NE,53,30.0,32.0,80,0.00,,,0.02,0.0,meteohub,2013-02-20 11:47:00,
2013-02-20 03:52:00,33.1,27.5,29.68,NE,55,24.0,32.0,80,0.00,,,0.02,0.0,meteohub,2013-02-20 11:52:00,
2013-02-20 03:57:00,33.3,27.7,29.67,ENE,60,26.0,32.0,80,0.00,,,0.02,0.0,meteohub,2013-02-20 11:57:00,
2013-02-20 04:02:00,33.1,27.5,29.67,ENE,59,20.0,35.0,80,0.00,,,0.02,0.0,meteohub,2013-02-20 12:02:00,
2013-02-20 04:07:00,32.7,27.5,29.68,ENE,75,22.0,35.0,81,0.00,,,0.02,0.0,meteohub,2013-02-20 12:07:00,
2013-02-20 04:12:00,32.5,27.7,29.68,ENE,65,28.0,35.0,82,0.00,,,0.02,0.0,meteohub,2013-02-20 12:12:00,
2013-02-20 04:17:00,32.5,27.3,29.68,ENE,69,28.0,31.0,81,0.00,,,0.02,0.0,meteohub,2013-02-20 12:17:00,
2013-02-20 04:22:00,32.5,27.1,29.68,ENE,60,28.0,31.0,80,0.00,,,0.02,0.0,meteohub,2013-02-20 12:22:00,
2013-02-20 04:27:00,32.5,26.8,29.67,ENE,61,33.0,35.0,79,0.00,,,0.02,0.0,meteohub,2013-02-20 12:27:00,
2013-02-20 04:32:00,32.5,25.5,29.67,NE,55,27.0,36.0,75,0.00,,,0.02,0.0,meteohub,2013-02-20 12:32:00,
2013-02-20 04:37:00,32.5,26.1,29.68,East,82,19.0,40.0,77,0.00,,,0.02,0.0,meteohub,2013-02-20 12:37:00,
2013-02-20 04:42:00,32.4,25.7,29.68,East,83,31.0,40.0,76,0.00,,,0.02,0.0,meteohub,2013-02-20 12:42:00,
2013-02-20 04:47:00,32.4,25.0,29.68,ENE,71,25.0,40.0,74,0.00,,,0.02,0.0,meteohub,2013-02-20 12:47:00,
2013-02-20 04:52:00,32.5,24.3,29.69,East,81,33.0,41.0,71,0.00,,,0.02,0.0,meteohub,2013-02-20 12:52:00,
2013-02-20 04:57:00,32.9,23.2,29.68,East,94,33.0,41.0,67,0.00,,,0.02,0.0,meteohub,2013-02-20 12:57:00,
2013-02-20 05:02:00,33.1,23.0,29.69,East,83,24.0,42.0,66,0.00,,,0.02,0.0,meteohub,2013-02-20 13:02:00,
2013-02-20 05:07:00,33.1,22.3,29.68,East,90,28.0,42.0,64,0.00,,,0.02,0.0,meteohub,2013-02-20 13:07:00,
2013-02-20 05:12:00,33.1,23.0,29.68,ENE,69,30.0,38.0,66,0.00,,,0.02,0.0,meteohub,2013-02-20 13:12:00,
2013-02-20 05:17:00,33.1,22.3,29.68,ENE,76,32.0,41.0,64,0.00,,,0.02,0.0,meteohub,2013-02-20 13:17:00,
2013-02-20 05:22:00,33.3,22.8,29.68,East,95,25.0,41.0,65,0.00,,,0.02,0.0,meteohub,2013-02-20 13:22:00,
2013-02-20 05:27:00,32.9,22.5,29.69,East,82,27.0,41.0,65,0.00,,,0.02,0.0,meteohub,2013-02-20 13:27:00,
2013-02-20 05:32:00,32.7,22.6,29.69,East,84,24.0,37.0,66,0.00,,,0.02,0.0,meteohub,2013-02-20 13:32:00,
2013-02-20 05:37:00,32.5,23.2,29.69,East,88,18.0,33.0,68,0.00,,,0.02,0.0,meteohub,2013-02-20 13:37:00,
2013-02-20 05:42:00,32.4,23.0,29.69,East,87,28.0,33.0,68,0.00,,,0.02,0.0,meteohub,2013-02-20 13:42:00,
2013-02-20 05:47:00,32.4,22.6,29.68,East,79,18.0,33.0,67,0.00,,,0.02,0.0,meteohub,2013-02-20 13:47:00,
2013-02-20 05:52:00,32.5,21.7,29.69,East,89,21.0,33.0,64,0.00,,,0.02,0.0,meteohub,2013-02-20 13:52:00,
2013-02-20 05:57:00,32.9,21.7,29.70,ENE,65,17.0,32.0,63,0.00,,,0.02,0.0,meteohub,2013-02-20 13:57:00,
2013-02-20 06:02:00,33.1,21.9,29.70,ENE,62,22.0,30.0,63,0.00,,,0.02,0.0,meteohub,2013-02-20 14:02:00,
2013-02-20 06:07:00,32.9,21.7,29.70,East,82,20.0,28.0,63,0.00,,,0.02,0.0,meteohub,2013-02-20 14:07:00,
2013-02-20 06:12:00,32.7,21.9,29.71,East,80,19.0,27.0,64,0.00,,,0.02,0.0,meteohub,2013-02-20 14:12:00,
2013-02-20 06:17:00,32.7,21.6,29.71,East,80,15.0,28.0,63,0.00,,,0.02,0.0,meteohub,2013-02-20 14:17:00,
2013-02-20 06:22:00,32.7,21.6,29.71,East,80,17.0,28.0,63,0.00,,,0.02,0.0,meteohub,2013-02-20 14:22:00,
2013-02-20 06:27:00,32.7,22.3,29.71,NE,49,16.0,32.0,65,0.00,,,0.02,0.0,meteohub,2013-02-20 14:27:00,
2013-02-20 06:32:00,32.5,21.7,29.72,ENE,72,24.0,32.0,64,0.00,,,0.02,0.0,meteohub,2013-02-20 14:32:00,
2013-02-20 06:37:00,32.5,22.1,29.72,East,88,18.0,32.0,65,0.00,,,0.02,5.0,meteohub,2013-02-20 14:37:00,
2013-02-20 06:42:00,32.4,21.9,29.73,East,80,19.0,29.0,65,0.00,,,0.02,7.0,meteohub,2013-02-20 14:42:00,
2013-02-20 06:47:00,32.5,22.1,29.73,ENE,71,13.0,29.0,65,0.00,,,0.02,9.0,meteohub,2013-02-20 14:47:00,
2013-02-20 06:52:00,32.2,22.1,29.73,ENE,74,17.0,27.0,66,0.00,,,0.02,11.0,meteohub,2013-02-20 14:52:00,
2013-02-20 06:57:00,31.8,22.5,29.73,NE,50,14.0,27.0,68,0.00,,,0.02,12.0,meteohub,2013-02-20 14:57:00,
2013-02-20 07:02:00,31.6,22.3,29.73,ENE,76,19.0,25.0,68,0.00,,,0.02,16.0,meteohub,2013-02-20 15:02:00,
2013-02-20 07:07:00,31.6,22.3,29.74,ENE,57,18.0,25.0,68,0.00,,,0.02,42.0,meteohub,2013-02-20 15:07:00,
2013-02-20 07:12:00,31.8,22.1,29.75,NE,44,17.0,23.0,67,0.00,,,0.02,19.0,meteohub,2013-02-20 15:12:00,
2013-02-20 07:17:00,32.2,22.5,29.75,ENE,59,17.0,22.0,67,0.00,,,0.02,23.0,meteohub,2013-02-20 15:17:00,
2013-02-20 07:22:00,32.5,22.1,29.75,NE,49,17.0,22.0,65,0.00,,,0.02,35.0,meteohub,2013-02-20 15:22:00,
2013-02-20 07:27:00,32.9,22.5,29.75,NE,38,12.0,22.0,65,0.00,,,0.02,113.0,meteohub,2013-02-20 15:27:00,
2013-02-20 07:32:00,33.1,22.6,29.76,NE,43,13.0,22.0,65,0.00,,,0.02,127.0,meteohub,2013-02-20 15:32:00,
2013-02-20 07:37:00,32.9,22.5,29.76,NNE,30,11.0,21.0,65,0.00,,,0.02,148.0,meteohub,2013-02-20 15:37:00,
2013-02-20 07:42:00,32.7,22.6,29.76,NE,42,8.0,19.0,66,0.00,,,0.02,169.0,meteohub,2013-02-20 15:42:00,
2013-02-20 07:47:00,32.9,23.2,29.77,ENE,57,15.0,19.0,67,0.00,,,0.02,186.0,meteohub,2013-02-20 15:47:00,
2013-02-20 07:53:00,33.1,22.6,29.77,NE,48,17.0,17.0,65,0.00,,,0.02,207.0,meteohub,2013-02-20 15:53:00,
2013-02-20 07:58:00,33.4,23.0,29.77,NE,50,16.0,19.0,65,0.00,,,0.02,230.0,meteohub,2013-02-20 15:58:00,
2013-02-20 08:03:00,33.6,22.8,29.78,ENE,59,5.0,21.0,64,0.00,,,0.02,246.0,meteohub,2013-02-20 16:03:00,
2013-02-20 08:08:00,34.0,23.0,29.78,NE,41,9.0,21.0,64,0.00,,,0.02,269.0,meteohub,2013-02-20 16:08:00,
2013-02-20 08:13:00,34.2,23.2,29.78,ENE,64,8.0,21.0,64,0.00,,,0.02,306.0,meteohub,2013-02-20 16:13:00,
2013-02-20 08:18:00,34.3,23.4,29.78,NE,42,16.0,19.0,64,0.00,,,0.02,366.0,meteohub,2013-02-20 16:18:00,
2013-02-20 08:23:00,34.3,23.4,29.79,NE,46,15.0,17.0,64,0.00,,,0.02,394.0,meteohub,2013-02-20 16:23:00,
2013-02-20 08:28:00,34.9,23.2,29.80,ENE,59,14.0,17.0,62,0.00,,,0.02,313.0,meteohub,2013-02-20 16:28:00,
2013-02-20 08:33:00,35.1,23.0,29.80,East,81,12.0,19.0,61,0.00,,,0.02,353.0,meteohub,2013-02-20 16:33:00,
2013-02-20 08:38:00,35.1,22.6,29.81,ENE,65,13.0,19.0,60,0.00,,,0.02,353.0,meteohub,2013-02-20 16:38:00,
2013-02-20 08:43:00,35.2,23.5,29.81,ENE,68,7.0,20.0,62,0.00,,,0.02,200.0,meteohub,2013-02-20 16:43:00,
2013-02-20 08:48:00,35.1,23.4,29.81,NE,51,14.0,20.0,62,0.00,,,0.02,404.0,meteohub,2013-02-20 16:48:00,
2013-02-20 08:53:00,35.2,24.3,29.82,East,82,2.0,20.0,64,0.00,,,0.02,408.0,meteohub,2013-02-20 16:53:00,
2013-02-20 08:58:00,35.4,24.1,29.82,East,95,8.0,18.0,63,0.00,,,0.02,424.0,meteohub,2013-02-20 16:58:00,
2013-02-20 09:03:00,35.6,23.9,29.82,ENE,59,11.0,16.0,62,0.00,,,0.02,438.0,meteohub,2013-02-20 17:03:00,
2013-02-20 09:08:00,36.1,24.1,29.82,ESE,121,2.0,15.0,61,0.00,,,0.02,454.0,meteohub,2013-02-20 17:08:00,
2013-02-20 09:13:00,36.7,24.1,29.83,East,99,4.0,18.0,60,0.00,,,0.02,468.0,meteohub,2013-02-20 17:13:00,
2013-02-20 09:18:00,37.6,24.1,29.83,ESE,110,0.0,18.0,58,0.00,,,0.02,482.0,meteohub,2013-02-20 17:18:00,
2013-02-20 09:23:00,38.3,23.5,29.83,ESE,122,4.0,18.0,55,0.00,,,0.02,496.0,meteohub,2013-02-20 17:23:00,
2013-02-20 09:29:00,38.7,23.4,29.83,SE,128,0.0,15.0,54,0.00,,,0.02,508.0,meteohub,2013-02-20 17:29:00,
2013-02-20 09:34:00,38.8,23.5,29.84,SE,128,0.0,14.0,54,0.00,,,0.02,520.0,meteohub,2013-02-20 17:34:00,
2013-02-20 09:39:00,38.8,23.5,29.84,SSE,148,0.0,12.0,54,0.00,,,0.02,533.0,meteohub,2013-02-20 17:39:00,
2013-02-20 09:44:00,38.8,23.2,29.84,SE,131,0.0,12.0,53,0.00,,,0.02,547.0,meteohub,2013-02-20 17:44:00,
2013-02-20 09:49:00,38.8,24.4,29.84,ESE,111,0.0,13.0,56,0.00,,,0.02,559.0,meteohub,2013-02-20 17:49:00,
2013-02-20 09:54:00,39.4,25.0,29.84,SSE,155,14.0,14.0,56,0.00,,,0.02,571.0,meteohub,2013-02-20 17:54:00,
2013-02-20 09:59:00,39.4,24.1,29.85,SE,125,2.0,13.0,54,0.00,,,0.02,587.0,meteohub,2013-02-20 17:59:00,
2013-02-20 10:04:00,39.4,24.6,29.85,ESE,119,15.0,15.0,55,0.00,,,0.02,594.0,meteohub,2013-02-20 18:04:00,
2013-02-20 10:09:00,39.2,24.8,29.85,SE,142,9.0,19.0,56,0.00,,,0.02,603.0,meteohub,2013-02-20 18:09:00,
2013-02-20 10:14:00,39.2,25.7,29.86,SE,133,13.0,19.0,58,0.00,,,0.02,613.0,meteohub,2013-02-20 18:14:00,
2013-02-20 10:19:00,39.4,25.9,29.86,SE,143,0.0,19.0,58,0.01,,,0.03,626.0,meteohub,2013-02-20 18:19:00,
2013-02-20 10:24:00,39.7,27.0,29.87,ESE,107,8.0,17.0,60,0.01,,,0.03,635.0,meteohub,2013-02-20 18:24:00,
2013-02-20 10:29:00,39.9,26.8,29.86,ESE,115,0.0,14.0,59,0.01,,,0.03,642.0,meteohub,2013-02-20 18:29:00,
2013-02-20 10:34:00,40.3,27.5,29.87,East,98,7.0,15.0,60,0.01,,,0.03,650.0,meteohub,2013-02-20 18:34:00,
2013-02-20 10:39:00,40.5,27.3,29.87,NE,55,0.0,15.0,59,0.01,,,0.03,661.0,meteohub,2013-02-20 18:39:00,
2013-02-20 10:44:00,40.5,27.7,29.88,ENE,66,1.0,15.0,60,0.01,,,0.03,668.0,meteohub,2013-02-20 18:44:00,
2013-02-20 10:49:00,40.6,27.9,29.88,NE,48,11.0,15.0,60,0.01,,,0.03,675.0,meteohub,2013-02-20 18:49:00,
2013-02-20 10:54:00,40.6,27.9,29.88,ENE,58,12.0,16.0,60,0.01,,,0.03,682.0,meteohub,2013-02-20 18:54:00,
2013-02-20 10:59:00,40.8,27.7,29.88,NNE,26,10.0,16.0,59,0.01,,,0.03,691.0,meteohub,2013-02-20 18:59:00,
2013-02-20 11:05:00,41.2,27.9,29.89,ENE,59,2.0,16.0,59,0.01,,,0.03,694.0,meteohub,2013-02-20 19:05:00,
2013-02-20 11:10:00,41.2,27.5,29.88,East,87,3.0,18.0,58,0.01,,,0.03,703.0,meteohub,2013-02-20 19:10:00,
2013-02-20 11:15:00,41.4,28.0,29.89,ENE,73,0.0,18.0,59,0.00,,,0.03,707.0,meteohub,2013-02-20 19:15:00,
2013-02-20 11:20:00,41.7,28.9,29.89,North,355,11.0,15.0,60,0.00,,,0.03,712.0,meteohub,2013-02-20 19:20:00,
2013-02-20 11:25:00,42.4,29.1,29.89,NE,48,6.0,17.0,59,0.00,,,0.03,715.0,meteohub,2013-02-20 19:25:00,
2013-02-20 11:30:00,42.4,28.2,29.89,NNE,30,2.0,19.0,57,0.00,,,0.03,721.0,meteohub,2013-02-20 19:30:00,
2013-02-20 11:35:00,42.3,28.6,29.89,NNE,32,0.0,19.0,58,0.00,,,0.03,724.0,meteohub,2013-02-20 19:35:00,
2013-02-20 11:40:00,42.4,29.1,29.89,NNE,28,4.0,19.0,59,0.00,,,0.03,726.0,meteohub,2013-02-20 19:40:00,
2013-02-20 11:45:00,43.2,31.5,29.89,WNW,301,0.0,16.0,63,0.00,,,0.03,729.0,meteohub,2013-02-20 19:45:00,
2013-02-20 11:50:00,43.5,28.4,29.89,East,79,12.0,13.0,55,0.00,,,0.03,737.0,meteohub,2013-02-20 19:50:00,
2013-02-20 11:55:00,43.2,28.9,29.90,ESE,108,0.0,14.0,57,0.00,,,0.03,737.0,meteohub,2013-02-20 19:55:00,
2013-02-20 12:00:00,43.2,28.6,29.89,ESE,115,12.0,14.0,56,0.00,,,0.03,738.0,meteohub,2013-02-20 20:00:00,
2013-02-20 12:05:00,43.0,28.8,29.89,NE,54,0.0,14.0,57,0.00,,,0.03,738.0,meteohub,2013-02-20 20:05:00,
2013-02-20 12:10:00,43.7,29.8,29.89,SSW,195,0.0,14.0,58,0.00,,,0.03,738.0,meteohub,2013-02-20 20:10:00,
2013-02-20 12:15:00,44.2,29.5,29.89,East,84,0.0,14.0,56,0.00,,,0.03,738.0,meteohub,2013-02-20 20:15:00,
2013-02-20 12:20:00,44.8,31.3,29.89,SE,134,0.0,8.0,59,0.00,,,0.03,737.0,meteohub,2013-02-20 20:20:00,
2013-02-20 12:25:00,45.3,30.0,29.89,East,92,0.0,11.0,55,0.00,,,0.03,737.0,meteohub,2013-02-20 20:25:00,
2013-02-20 12:31:00,45.0,29.3,29.89,East,84,0.0,11.0,54,0.01,,,0.04,735.0,meteohub,2013-02-20 20:31:00,
2013-02-20 12:36:00,45.0,29.8,29.88,SSE,152,7.0,11.0,55,0.01,,,0.04,731.0,meteohub,2013-02-20 20:36:00,
2013-02-20 12:41:00,45.1,29.5,29.88,NNE,19,0.0,9.0,54,0.01,,,0.04,731.0,meteohub,2013-02-20 20:41:00,
2013-02-20 12:46:00,45.0,30.2,29.88,ESE,114,0.0,11.0,56,0.01,,,0.04,729.0,meteohub,2013-02-20 20:46:00,
2013-02-20 12:51:00,45.0,29.3,29.88,SE,126,9.0,11.0,54,0.01,,,0.04,728.0,meteohub,2013-02-20 20:51:00,
2013-02-20 12:56:00,45.1,30.7,29.88,SSE,148,2.0,15.0,57,0.01,,,0.04,726.0,meteohub,2013-02-20 20:56:00,
2013-02-20 13:01:00,45.7,30.4,29.88,ESE,109,4.0,15.0,55,0.01,,,0.04,717.0,meteohub,2013-02-20 21:01:00,
2013-02-20 13:06:00,46.0,30.4,29.88,ENE,61,0.0,11.0,54,0.01,,,0.04,712.0,meteohub,2013-02-20 21:06:00,
2013-02-20 13:11:00,46.8,30.9,29.88,South,180,0.0,10.0,54,0.01,,,0.04,710.0,meteohub,2013-02-20 21:11:00,
2013-02-20 13:16:00,47.5,32.5,29.88,ESE,121,0.0,7.0,56,0.01,,,0.04,703.0,meteohub,2013-02-20 21:16:00,
2013-02-20 13:21:00,48.0,31.3,29.88,SE,126,0.0,4.0,52,0.01,,,0.04,696.0,meteohub,2013-02-20 21:21:00,
2013-02-20 13:26:00,47.8,31.5,29.88,South,177,0.0,4.0,53,0.01,,,0.04,693.0,meteohub,2013-02-20 21:26:00,
2013-02-20 13:31:00,47.8,35.1,29.88,SSW,213,0.0,4.0,61,0.00,,,0.04,686.0,meteohub,2013-02-20 21:31:00,
2013-02-20 13:36:00,48.0,34.3,29.88,SW,219,0.0,4.0,59,0.00,,,0.04,677.0,meteohub,2013-02-20 21:36:00,
2013-02-20 13:41:00,48.0,34.0,29.88,WSW,242,0.0,4.0,58,0.00,,,0.04,673.0,meteohub,2013-02-20 21:41:00,
2013-02-20 13:46:00,48.4,31.6,29.87,South,182,0.0,2.0,52,0.00,,,0.04,663.0,meteohub,2013-02-20 21:46:00,
2013-02-20 13:51:00,48.7,31.8,29.88,ESE,113,0.0,3.0,52,0.00,,,0.04,652.0,meteohub,2013-02-20 21:51:00,
2013-02-20 13:56:00,48.9,32.0,29.88,SE,138,0.0,6.0,52,0.00,,,0.04,643.0,meteohub,2013-02-20 21:56:00,
2013-02-20 14:02:00,49.1,34.5,29.88,WNW,288,0.0,6.0,57,0.00,,,0.04,636.0,meteohub,2013-02-20 22:02:00,
2013-02-20 14:07:00,49.5,36.5,29.88,NW,307,0.0,5.0,61,0.00,,,0.04,628.0,meteohub,2013-02-20 22:07:00,
2013-02-20 14:12:00,49.1,34.9,29.88,NW,313,0.0,7.0,58,0.00,,,0.04,619.0,meteohub,2013-02-20 22:12:00,
2013-02-20 14:17:00,49.3,34.2,29.88,NE,36,0.0,7.0,56,0.00,,,0.04,605.0,meteohub,2013-02-20 22:17:00,
2013-02-20 14:22:00,49.1,35.4,29.88,SW,221,0.0,7.0,59,0.00,,,0.04,592.0,meteohub,2013-02-20 22:22:00,
2013-02-20 14:27:00,48.7,37.6,29.88,SW,219,4.0,4.0,65,0.00,,,0.04,585.0,meteohub,2013-02-20 22:27:00,
2013-02-20 14:32:00,48.0,35.6,29.89,WSW,241,0.0,6.0,62,0.00,,,0.04,580.0,meteohub,2013-02-20 22:32:00,
2013-02-20 14:37:00,48.6,37.8,29.89,NW,313,0.0,6.0,66,0.00,,,0.04,554.0,meteohub,2013-02-20 22:37:00,
2013-02-20 14:42:00,48.7,36.7,29.88,WNW,302,0.0,7.0,63,0.00,,,0.04,545.0,meteohub,2013-02-20 22:42:00,
2013-02-20 14:47:00,49.1,37.8,29.89,NNW,333,3.0,7.0,65,0.00,,,0.04,538.0,meteohub,2013-02-20 22:47:00,
2013-02-20 14:52:00,49.3,37.6,29.89,NNW,346,1.0,7.0,64,0.00,,,0.04,524.0,meteohub,2013-02-20 22:52:00,
2013-02-20 14:57:00,49.3,36.3,29.89,NNW,337,7.0,8.0,61,0.00,,,0.04,504.0,meteohub,2013-02-20 22:57:00,
2013-02-20 15:02:00,48.7,36.3,29.89,NNW,346,8.0,10.0,62,0.00,,,0.04,490.0,meteohub,2013-02-20 23:02:00,
2013-02-20 15:07:00,49.3,37.6,29.89,NW,310,6.0,11.0,64,0.00,,,0.04,482.0,meteohub,2013-02-20 23:07:00,
2013-02-20 15:12:00,48.9,36.5,29.89,North,355,5.0,11.0,62,0.00,,,0.04,461.0,meteohub,2013-02-20 23:12:00,
2013-02-20 15:17:00,48.6,35.8,29.89,West,281,1.0,11.0,61,0.00,,,0.04,455.0,meteohub,2013-02-20 23:17:00,
2013-02-20 15:22:00,48.4,35.6,29.89,NW,321,0.0,12.0,61,0.00,,,0.04,441.0,meteohub,2013-02-20 23:22:00,
2013-02-20 15:27:00,48.4,36.7,29.89,NNW,344,0.0,12.0,64,0.00,,,0.04,415.0,meteohub,2013-02-20 23:27:00,
2013-02-20 15:33:00,48.6,36.9,29.90,NE,44,0.0,8.0,64,0.00,,,0.04,424.0,meteohub,2013-02-20 23:33:00,
2013-02-20 15:38:00,48.0,36.9,29.90,North,355,0.0,3.0,65,0.00,,,0.04,385.0,meteohub,2013-02-20 23:38:00,
2013-02-20 15:43:00,48.4,37.6,29.90,North,5,2.0,0.0,66,0.00,,,0.04,367.0,meteohub,2013-02-20 23:43:00,
2013-02-20 15:48:00,48.7,36.7,29.90,NE,36,0.0,6.0,63,0.00,,,0.04,352.0,meteohub,2013-02-20 23:48:00,
2013-02-20 15:53:00,48.6,34.5,29.90,ESE,109,0.0,6.0,58,0.00,,,0.04,336.0,meteohub,2013-02-20 23:53:00,
2013-02-20 15:58:00,48.6,32.7,29.90,South,176,0.0,6.0,54,0.00,,,0.04,325.0,meteohub,2013-02-20 23:58:00,
2013-02-20 16:03:00,48.4,32.0,29.90,SSE,167,0.0,4.0,53,0.00,,,0.04,306.0,meteohub,2013-02-21 00:03:00,
2013-02-20 16:08:00,48.0,32.2,29.90,SSE,167,0.0,6.0,54,0.00,,,0.04,287.0,meteohub,2013-02-21 00:08:00,
2013-02-20 16:13:00,48.0,32.2,29.90,ESE,107,0.0,6.0,54,0.00,,,0.04,269.0,meteohub,2013-02-21 00:13:00,
2013-02-20 16:18:00,48.0,30.7,29.90,East,82,0.0,6.0,51,0.00,,,0.04,251.0,meteohub,2013-02-21 00:18:00,
2013-02-20 16:23:00,48.0,31.3,29.90,East,98,0.0,7.0,52,0.00,,,0.04,230.0,meteohub,2013-02-21 00:23:00,
2013-02-20 16:28:00,47.8,31.1,29.91,East,98,0.0,7.0,52,0.00,,,0.04,207.0,meteohub,2013-02-21 00:28:00,
2013-02-20 16:33:00,47.8,34.2,29.91,East,98,0.0,7.0,59,0.00,,,0.04,176.0,meteohub,2013-02-21 00:33:00,
2013-02-20 16:38:00,47.8,35.1,29.92,East,98,0.0,0.0,61,0.00,,,0.04,144.0,meteohub,2013-02-21 00:38:00,
2013-02-20 16:44:00,47.8,35.4,29.92,East,99,0.0,0.0,62,0.00,,,0.04,141.0,meteohub,2013-02-21 00:44:00,
2013-02-20 16:49:00,48.0,30.7,29.92,East,98,0.0,0.0,51,0.00,,,0.04,121.0,meteohub,2013-02-21 00:49:00,
2013-02-20 16:54:00,47.7,30.9,29.92,SSE,167,0.0,0.0,52,0.00,,,0.04,102.0,meteohub,2013-02-21 00:54:00,
2013-02-20 16:59:00,47.3,30.6,29.92,SSW,200,0.0,0.0,52,0.00,,,0.04,84.0,meteohub,2013-02-21 00:59:00,
2013-02-20 17:04:00,46.9,31.6,29.93,SSW,200,0.0,0.0,55,0.00,,,0.04,67.0,meteohub,2013-02-21 01:04:00,
2013-02-20 17:09:00,46.9,33.8,29.93,SSW,200,0.0,0.0,60,0.00,,,0.04,54.0,meteohub,2013-02-21 01:09:00,
2013-02-20 17:14:00,47.1,34.0,29.93,SSW,200,0.0,0.0,60,0.00,,,0.04,40.0,meteohub,2013-02-21 01:14:00,
2013-02-20 17:19:00,46.8,29.1,29.93,SSW,192,0.0,0.0,50,0.00,,,0.04,28.0,meteohub,2013-02-21 01:19:00,
2013-02-20 17:24:00,46.6,28.4,29.93,SSW,192,0.0,0.0,49,0.00,,,0.04,21.0,meteohub,2013-02-21 01:24:00,
2013-02-20 17:29:00,46.6,28.4,29.93,SSW,192,0.0,1.0,49,0.00,,,0.04,16.0,meteohub,2013-02-21 01:29:00,
2013-02-20 17:34:00,46.4,28.2,29.93,SE,125,1.0,1.0,49,0.00,,,0.04,14.0,meteohub,2013-02-21 01:34:00,
2013-02-20 17:39:00,46.0,27.9,29.93,SSE,153,7.0,7.0,49,0.00,,,0.04,11.0,meteohub,2013-02-21 01:39:00,
2013-02-20 17:44:00,45.7,27.7,29.94,SE,144,1.0,9.0,49,0.00,,,0.04,7.0,meteohub,2013-02-21 01:44:00,
2013-02-20 17:49:00,45.3,27.9,29.93,SSE,149,5.0,9.0,50,0.00,,,0.04,0.0,meteohub,2013-02-21 01:49:00,
2013-02-20 17:54:00,45.0,27.5,29.94,SE,144,9.0,9.0,50,0.00,,,0.04,0.0,meteohub,2013-02-21 01:54:00,
2013-02-20 17:59:00,44.6,27.1,29.94,SE,136,8.0,10.0,50,0.00,,,0.04,0.0,meteohub,2013-02-21 01:59:00,
2013-02-20 18:04:00,44.1,27.1,29.94,SE,126,9.0,11.0,51,0.01,,,0.05,0.0,meteohub,2013-02-21 02:04:00,
2013-02-20 18:10:00,43.7,26.8,29.94,SE,139,9.0,13.0,51,0.01,,,0.05,0.0,meteohub,2013-02-21 02:10:00,
2013-02-20 18:15:00,43.3,26.4,29.94,SE,135,7.0,15.0,51,0.01,,,0.05,0.0,meteohub,2013-02-21 02:15:00,
2013-02-20 18:20:00,43.2,26.2,29.94,SE,132,12.0,15.0,51,0.01,,,0.05,0.0,meteohub,2013-02-21 02:20:00,
2013-02-20 18:25:00,43.0,26.1,29.94,ESE,123,5.0,15.0,51,0.01,,,0.05,0.0,meteohub,2013-02-21 02:25:00,
2013-02-20 18:30:00,43.0,26.1,29.94,ESE,123,8.0,15.0,51,0.01,,,0.05,0.0,meteohub,2013-02-21 02:30:00,
2013-02-20 18:35:00,42.6,25.3,29.94,ESE,116,13.0,15.0,50,0.01,,,0.05,0.0,meteohub,2013-02-21 02:35:00,
2013-02-20 18:40:00,42.4,24.6,29.94,ESE,117,12.0,15.0,49,0.01,,,0.05,0.0,meteohub,2013-02-21 02:40:00,
2013-02-20 18:45:00,42.4,24.6,29.95,ESE,111,12.0,16.0,49,0.01,,,0.05,0.0,meteohub,2013-02-21 02:45:00,
2013-02-20 18:50:00,42.4,24.6,29.95,East,98,12.0,16.0,49,0.01,,,0.05,0.0,meteohub,2013-02-21 02:50:00,
2013-02-20 18:55:00,42.8,24.4,29.95,ESE,117,13.0,16.0,48,0.01,,,0.05,0.0,meteohub,2013-02-21 02:55:00,
2013-02-20 19:00:00,42.8,23.9,29.95,ESE,103,15.0,16.0,47,0.00,,,0.05,0.0,meteohub,2013-02-21 03:00:00,
2013-02-20 19:05:00,42.6,23.7,29.95,East,101,16.0,18.0,47,0.00,,,0.05,0.0,meteohub,2013-02-21 03:05:00,
2013-02-20 19:10:00,42.4,23.7,29.95,ESE,112,14.0,20.0,47,0.00,,,0.05,0.0,meteohub,2013-02-21 03:10:00,
2013-02-20 19:15:00,42.3,23.5,29.95,ESE,105,13.0,20.0,47,0.00,,,0.05,0.0,meteohub,2013-02-21 03:15:00,
2013-02-20 19:20:00,42.1,23.4,29.96,East,96,15.0,20.0,47,0.00,,,0.05,0.0,meteohub,2013-02-21 03:20:00,
2013-02-20 19:25:00,41.9,23.7,29.95,SE,126,12.0,20.0,48,0.00,,,0.05,0.0,meteohub,2013-02-21 03:25:00,
2013-02-20 19:31:00,41.7,23.5,29.96,East,101,13.0,20.0,48,0.00,,,0.05,0.0,meteohub,2013-02-21 03:31:00,
2013-02-20 19:36:00,41.5,23.7,29.96,ESE,117,18.0,20.0,49,0.00,,,0.05,0.0,meteohub,2013-02-21 03:36:00,
2013-02-20 19:41:00,41.5,23.4,29.96,ESE,114,19.0,22.0,48,0.00,,,0.05,0.0,meteohub,2013-02-21 03:41:00,
2013-02-20 19:46:00,41.4,23.7,29.96,ESE,117,15.0,22.0,49,0.00,,,0.05,0.0,meteohub,2013-02-21 03:46:00,
2013-02-20 19:51:00,41.4,23.7,29.96,ESE,111,16.0,24.0,49,0.00,,,0.05,0.0,meteohub,2013-02-21 03:51:00,
2013-02-20 19:56:00,41.4,24.1,29.96,ESE,111,20.0,24.0,50,0.00,,,0.05,0.0,meteohub,2013-02-21 03:56:00,
2013-02-20 20:01:00,41.2,24.4,29.96,SE,130,20.0,25.0,51,0.00,,,0.05,0.0,meteohub,2013-02-21 04:01:00,
2013-02-20 20:07:00,40.8,24.1,29.97,ESE,119,16.0,25.0,51,0.00,,,0.05,0.0,meteohub,2013-02-21 04:07:00,
2013-02-20 20:12:00,40.6,24.4,29.97,SE,129,12.0,22.0,52,0.00,,,0.05,0.0,meteohub,2013-02-21 04:12:00,
2013-02-20 20:17:00,40.6,24.8,29.97,SE,141,14.0,21.0,53,0.00,,,0.05,0.0,meteohub,2013-02-21 04:17:00,
2013-02-20 20:22:00,40.5,24.6,29.97,SE,134,15.0,18.0,53,0.00,,,0.05,0.0,meteohub,2013-02-21 04:22:00,
2013-02-20 20:27:00,40.5,25.2,29.97,SE,134,17.0,17.0,54,0.00,,,0.05,0.0,meteohub,2013-02-21 04:27:00,
2013-02-20 20:32:00,40.5,25.2,29.97,SE,134,14.0,18.0,54,0.00,,,0.05,0.0,meteohub,2013-02-21 04:32:00,
2013-02-20 20:37:00,40.6,24.8,29.98,SSE,153,6.0,19.0,53,0.00,,,0.05,0.0,meteohub,2013-02-21 04:37:00,
2013-02-20 20:42:00,40.6,24.8,29.98,SE,142,8.0,19.0,53,0.00,,,0.05,0.0,meteohub,2013-02-21 04:42:00,
2013-02-20 20:47:00,40.6,25.3,29.98,SE,134,8.0,19.0,54,0.00,,,0.05,0.0,meteohub,2013-02-21 04:47:00,
2013-02-20 20:52:00,40.8,25.0,29.98,ESE,119,8.0,14.0,53,0.00,,,0.05,0.0,meteohub,2013-02-21 04:52:00,
2013-02-20 20:57:00,40.8,25.0,29.99,SE,130,7.0,14.0,53,0.00,,,0.05,0.0,meteohub,2013-02-21 04:57:00,
2013-02-20 21:00:00,40.8,25.0,29.99,SE,126,8.0,14.0,53,0.00,,,0.05,0.0,meteohub,2013-02-21 05:00:00,
2013-02-20 21:02:00,40.8,25.0,29.99,ESE,114,7.0,15.0,53,0.00,,,0.05,0.0,meteohub,2013-02-21 05:02:00,
2013-02-20 21:03:00,40.8,25.0,29.99,ESE,118,11.0,15.0,53,0.00,,,0.05,0.0,meteohub,2013-02-21 05:03:00,
2013-02-20 21:04:00,40.8,25.0,29.99,ESE,115,9.0,15.0,53,0.00,,,0.05,0.0,meteohub,2013-02-21 05:04:00,
2013-02-20 21:09:00,40.8,25.0,29.99,ESE,121,8.0,15.0,53,0.00,,,0.05,0.0,meteohub,2013-02-21 05:09:00,
2013-02-20 21:14:00,41.0,25.2,29.99,ESE,114,6.0,14.0,53,0.00,,,0.05,0.0,meteohub,2013-02-21 05:14:00,
2013-02-20 21:19:00,41.2,24.8,29.99,ESE,118,4.0,11.0,52,0.00,,,0.05,0.0,meteohub,2013-02-21 05:19:00,
2013-02-20 21:24:00,41.2,24.8,29.99,ESE,119,0.0,9.0,52,0.00,,,0.05,0.0,meteohub,2013-02-21 05:24:00,
2013-02-20 21:30:00,41.2,24.8,29.99,SE,124,7.0,9.0,52,0.00,,,0.05,0.0,meteohub,2013-02-21 05:30:00,
2013-02-20 21:35:00,41.4,24.6,29.99,SE,127,16.0,16.0,51,0.00,,,0.05,0.0,meteohub,2013-02-21 05:35:00,
2013-02-20 21:40:00,41.5,24.3,29.99,SE,130,19.0,19.0,50,0.00,,,0.05,0.0,meteohub,2013-02-21 05:40:00,
2013-02-20 21:45:00,41.5,24.3,29.98,ESE,117,21.0,21.0,50,0.00,,,0.05,0.0,meteohub,2013-02-21 05:45:00,
2013-02-20 21:50:00,41.5,24.3,29.98,ESE,113,20.0,22.0,50,0.00,,,0.05,0.0,meteohub,2013-02-21 05:50:00,
2013-02-20 21:55:00,41.5,24.3,29.98,ESE,117,23.0,24.0,50,0.00,,,0.05,0.0,meteohub,2013-02-21 05:55:00,
2013-02-20 22:01:00,41.7,25.0,29.98,ESE,115,22.0,25.0,51,0.00,,,0.05,0.0,meteohub,2013-02-21 06:01:00,
2013-02-20 22:06:00,41.7,24.4,29.98,ESE,112,21.0,26.0,50,0.00,,,0.05,0.0,meteohub,2013-02-21 06:06:00,
2013-02-20 22:11:00,41.9,24.6,29.98,East,99,25.0,29.0,50,0.00,,,0.05,0.0,meteohub,2013-02-21 06:11:00,
2013-02-20 22:16:00,41.9,24.6,29.98,ESE,105,24.0,29.0,50,0.00,,,0.05,0.0,meteohub,2013-02-21 06:16:00,
2013-02-20 22:21:00,41.9,25.2,29.99,East,95,21.0,29.0,51,0.00,,,0.05,0.0,meteohub,2013-02-21 06:21:00,
2013-02-20 22:26:00,41.7,25.0,29.99,East,99,22.0,30.0,51,0.00,,,0.05,0.0,meteohub,2013-02-21 06:26:00,
2013-02-20 22:31:00,41.7,25.0,29.99,East,82,21.0,30.0,51,0.00,,,0.05,0.0,meteohub,2013-02-21 06:31:00,
2013-02-20 22:36:00,41.7,25.0,29.99,ESE,102,25.0,30.0,51,0.00,,,0.05,0.0,meteohub,2013-02-21 06:36:00,
2013-02-20 22:41:00,41.9,25.2,29.99,ESE,107,18.0,28.0,51,0.00,,,0.05,0.0,meteohub,2013-02-21 06:41:00,
2013-02-20 22:46:00,41.9,24.6,29.99,East,86,13.0,28.0,50,0.00,,,0.05,0.0,meteohub,2013-02-21 06:46:00,
2013-02-20 22:51:00,41.9,24.1,29.99,East,98,21.0,28.0,49,0.00,,,0.05,0.0,meteohub,2013-02-21 06:51:00,
2013-02-20 22:56:00,41.9,24.1,29.99,East,94,20.0,25.0,49,0.00,,,0.05,0.0,meteohub,2013-02-21 06:56:00,
2013-02-20 23:01:00,42.3,23.5,29.99,ESE,102,16.0,23.0,47,0.00,,,0.05,0.0,meteohub,2013-02-21 07:01:00,
2013-02-20 23:06:00,42.4,23.7,29.99,East,84,12.0,23.0,47,0.00,,,0.05,0.0,meteohub,2013-02-21 07:06:00,
2013-02-20 23:12:00,42.4,23.7,29.99,East,83,13.0,23.0,47,0.00,,,0.05,0.0,meteohub,2013-02-21 07:12:00,
2013-02-20 23:17:00,42.4,23.2,29.99,East,95,16.0,21.0,46,0.00,,,0.05,0.0,meteohub,2013-02-21 07:17:00,
2013-02-20 23:22:00,42.6,23.4,29.99,East,94,12.0,21.0,46,0.00,,,0.05,0.0,meteohub,2013-02-21 07:22:00,
2013-02-20 23:27:00,42.4,23.7,29.99,East,87,18.0,21.0,47,0.00,,,0.05,0.0,meteohub,2013-02-21 07:27:00,
2013-02-20 23:32:00,42.4,23.7,29.99,East,100,21.0,23.0,47,0.00,,,0.05,0.0,meteohub,2013-02-21 07:32:00,
2013-02-20 23:37:00,42.4,23.7,29.99,East,96,20.0,23.0,47,0.00,,,0.05,0.0,meteohub,2013-02-21 07:37:00,
2013-02-20 23:42:00,42.6,23.7,29.99,East,96,16.0,24.0,47,0.00,,,0.05,0.0,meteohub,2013-02-21 07:42:00,
2013-02-20 23:47:00,42.4,23.7,29.99,East,92,15.0,24.0,47,0.00,,,0.05,0.0,meteohub,2013-02-21 07:47:00,
2013-02-20 23:52:00,42.6,23.4,30.00,East,96,19.0,24.0,46,0.00,,,0.05,0.0,meteohub,2013-02-21 07:52:00,
2013-02-20 23:57:00,42.8,23.0,30.00,ESE,104,19.0,22.0,45,0.00,,,0.05,0.0,meteohub,2013-02-21 07:57:00,